EN

Hourly Weather Lahnovo

Today, 28 July, Wednesday

Time Temperature Precipitation Wind Pressure Humidity
00:00 +19°C° 0 mm 1 mps 745 mmHg 79%
01:00 +18°C° 0 mm 1 mps 745 mmHg 81%
02:00 +18°C° 0 mm 1 mps 745 mmHg 85%
03:00 +18°C° 0 mm 1 mps 744 mmHg 85%
04:00 +18°C° 0 mm 1 mps 744 mmHg 85%
05:00 +19°C° 0 mm 1 mps 744 mmHg 85%
06:00 +20°C° 0 mm 2 mps 743 mmHg 78%
07:00 +21°C° 0 mm 2 mps 743 mmHg 70%
08:00 +24°C° 0 mm 2 mps 743 mmHg 62%
09:00 +24°C° 0.3 mm 3 mps 743 mmHg 67%
10:00 +24°C° 0.3 mm 3 mps 743 mmHg 72%
11:00 +23°C° 0.3 mm 4 mps 743 mmHg 78%
12:00 +22°C° 0.5 mm 4 mps 742 mmHg 82%
13:00 +21°C° 0.5 mm 3 mps 742 mmHg 85%
14:00 +20°C° 0 mm 3 mps 742 mmHg 88%
15:00 +20°C° 0.2 mm 3 mps 741 mmHg 87%
16:00 +20°C° 0.2 mm 3 mps 741 mmHg 86%
17:00 +20°C° 0.2 mm 3 mps 740 mmHg 86%
18:00 +19°C° 0 mm 2 mps 740 mmHg 89%
19:00 +18°C° 0 mm 2 mps 740 mmHg 93%
20:00 +18°C° 0 mm 1 mps 740 mmHg 96%
21:00 +18°C° 0 mm 1 mps 740 mmHg 96%
22:00 +18°C° 0 mm 1 mps 739 mmHg 96%
23:00 +18°C° 0 mm 1 mps 739 mmHg 96%

Tomorrow, 29 July, Thursday

Time Temperature Precipitation Wind Pressure Humidity
00:00 +16°C° 0 mm 1 mps 739 mmHg 97%
01:00 +16°C° 0 mm 1 mps 739 mmHg 97%
02:00 +16°C° 0 mm 1 mps 738 mmHg 97%
03:00 +16°C° 0 mm 1 mps 738 mmHg 97%
04:00 +16°C° 0 mm 1 mps 738 mmHg 96%
05:00 +16°C° 0 mm 1 mps 738 mmHg 96%
06:00 +19°C° 0 mm 1 mps 738 mmHg 88%
07:00 +20°C° 0 mm 2 mps 738 mmHg 81%
08:00 +23°C° 0 mm 2 mps 738 mmHg 73%
09:00 +24°C° 0.1 mm 2 mps 738 mmHg 68%
10:00 +25°C° 0.1 mm 3 mps 737 mmHg 63%
11:00 +26°C° 0.1 mm 3 mps 737 mmHg 58%
12:00 +26°C° 0.3 mm 3 mps 737 mmHg 60%
13:00 +26°C° 0.3 mm 3 mps 737 mmHg 61%
14:00 +25°C° 0.3 mm 3 mps 737 mmHg 63%
15:00 +25°C° 0 mm 3 mps 737 mmHg 62%
16:00 +25°C° 0 mm 3 mps 737 mmHg 60%
17:00 +25°C° 0 mm 3 mps 736 mmHg 59%
18:00 +23°C° 0 mm 2 mps 736 mmHg 67%
19:00 +21°C° 0 mm 2 mps 736 mmHg 74%
20:00 +19°C° 0 mm 2 mps 736 mmHg 82%
21:00 +19°C° 0.1 mm 2 mps 736 mmHg 87%
22:00 +18°C° 0.1 mm 2 mps 736 mmHg 91%
23:00 +17°C° 0.1 mm 2 mps 736 mmHg 96%

Day after tomorrow, 30 July, Friday

Time Temperature Precipitation Wind Pressure Humidity
00:00 +17°C° 0 mm 2 mps 736 mmHg 97%
01:00 +17°C° 0 mm 2 mps 736 mmHg 97%
02:00 +16°C° 0 mm 2 mps 736 mmHg 98%
03:00 +16°C° 0 mm 2 mps 736 mmHg 97%
04:00 +16°C° 0 mm 2 mps 736 mmHg 97%
05:00 +17°C° 0 mm 2 mps 736 mmHg 96%
06:00 +18°C° 0.1 mm 2 mps 736 mmHg 88%
07:00 +20°C° 0.1 mm 2 mps 736 mmHg 80%
08:00 +23°C° 0.1 mm 2 mps 736 mmHg 72%
09:00 +22°C° 0.4 mm 3 mps 736 mmHg 69%
10:00 +24°C° 0.4 mm 3 mps 736 mmHg 66%
11:00 +23°C° 0.4 mm 4 mps 736 mmHg 62%
12:00 +25°C° 0 mm 4 mps 736 mmHg 57%
13:00 +25°C° 0 mm 4 mps 736 mmHg 52%
14:00 +26°C° 0 mm 4 mps 736 mmHg 47%
15:00 +25°C° 0 mm 3 mps 736 mmHg 47%
16:00 +25°C° 0 mm 3 mps 736 mmHg 47%
17:00 +24°C° 0 mm 2 mps 735 mmHg 47%
18:00 +23°C° 0 mm 2 mps 735 mmHg 52%
19:00 +21°C° 0 mm 3 mps 735 mmHg 56%
20:00 +20°C° 0 mm 3 mps 735 mmHg 60%
21:00 +19°C° 0 mm 3 mps 735 mmHg 66%
22:00 +18°C° 0 mm 3 mps 735 mmHg 72%
23:00 +17°C° 0 mm 2 mps 735 mmHg 78%

31 July, Saturday

Time Temperature Precipitation Wind Pressure Humidity
00:00 +16°C° 0 mm 3 mps 735 mmHg 76%
01:00 +16°C° 0 mm 3 mps 735 mmHg 75%
02:00 +15°C° 0 mm 4 mps 734 mmHg 73%
03:00 +15°C° 0 mm 4 mps 734 mmHg 72%
04:00 +15°C° 0 mm 4 mps 734 mmHg 71%
05:00 +15°C° 0 mm 4 mps 734 mmHg 70%
06:00 +16°C° 0 mm 5 mps 734 mmHg 67%
07:00 +17°C° 0 mm 5 mps 734 mmHg 63%
08:00 +19°C° 0 mm 6 mps 734 mmHg 60%
09:00 +20°C° 0 mm 6 mps 734 mmHg 58%
10:00 +21°C° 0 mm 6 mps 735 mmHg 57%
11:00 +22°C° 0 mm 6 mps 735 mmHg 55%
12:00 +22°C° 0 mm 5 mps 735 mmHg 55%
13:00 +23°C° 0 mm 5 mps 735 mmHg 55%
14:00 +23°C° 0 mm 5 mps 736 mmHg 54%
15:00 +23°C° 0 mm 5 mps 736 mmHg 55%
16:00 +23°C° 0 mm 5 mps 736 mmHg 56%
17:00 +23°C° 0 mm 4 mps 736 mmHg 57%
18:00 +22°C° 0 mm 4 mps 737 mmHg 64%
19:00 +20°C° 0 mm 3 mps 737 mmHg 71%
20:00 +19°C° 0 mm 3 mps 737 mmHg 78%
21:00 +18°C° 0 mm 2 mps 737 mmHg 83%
22:00 +17°C° 0 mm 2 mps 737 mmHg 88%
23:00 +16°C° 0 mm 2 mps 738 mmHg 93%

1 August, Sunday

Time Temperature Precipitation Wind Pressure Humidity
00:00 +16°C° 0 mm 2 mps 738 mmHg 91%
01:00 +16°C° 0 mm 2 mps 738 mmHg 89%
02:00 +16°C° 0 mm 2 mps 738 mmHg 86%
03:00 +16°C° 0 mm 2 mps 738 mmHg 82%
04:00 +17°C° 0 mm 2 mps 738 mmHg 79%
05:00 +17°C° 0 mm 2 mps 737 mmHg 75%
06:00 +17°C° 0.2 mm 2 mps 737 mmHg 78%
07:00 +17°C° 0.2 mm 3 mps 737 mmHg 80%
08:00 +17°C° 0.2 mm 3 mps 737 mmHg 83%
09:00 +18°C° 0.1 mm 3 mps 737 mmHg 84%
10:00 +18°C° 0.1 mm 3 mps 737 mmHg 85%
11:00 +18°C° 0.1 mm 3 mps 737 mmHg 87%
12:00 +20°C° 0.2 mm 3 mps 737 mmHg 79%
13:00 +22°C° 0.2 mm 3 mps 737 mmHg 70%
14:00 +25°C° 0.2 mm 4 mps 737 mmHg 62%
15:00 +25°C° 0.1 mm 3 mps 737 mmHg 61%
16:00 +25°C° 0.1 mm 2 mps 737 mmHg 60%
17:00 +24°C° 0.1 mm 2 mps 736 mmHg 59%
18:00 +23°C° 0 mm 2 mps 737 mmHg 63%
19:00 +20°C° 0 mm 2 mps 737 mmHg 66%
20:00 +19°C° 0 mm 2 mps 737 mmHg 70%
21:00 +19°C° 0 mm 1 mps 738 mmHg 73%
22:00 +18°C° 0 mm 1 mps 738 mmHg 75%
23:00 +18°C° 0 mm 1 mps 738 mmHg 77%

2 August, Monday

Time Temperature Precipitation Wind Pressure Humidity
00:00 +16°C° 0 mm 1 mps 738 mmHg 79%
01:00 +16°C° 0 mm 2 mps 738 mmHg 80%
02:00 +15°C° 0 mm 2 mps 738 mmHg 82%
03:00 +15°C° 0 mm 2 mps 738 mmHg 83%
04:00 +15°C° 0 mm 1 mps 738 mmHg 84%
05:00 +15°C° 0 mm 1 mps 738 mmHg 85%
06:00 +18°C° 0 mm 1 mps 738 mmHg 76%
07:00 +20°C° 0 mm 1 mps 738 mmHg 68%
08:00 +22°C° 0 mm 1 mps 738 mmHg 59%
09:00 +23°C° 0 mm 1 mps 738 mmHg 54%
10:00 +25°C° 0 mm 2 mps 738 mmHg 50%
11:00 +26°C° 0 mm 2 mps 737 mmHg 45%
12:00 +26°C° 0 mm 2 mps 737 mmHg 44%
13:00 +27°C° 0 mm 2 mps 736 mmHg 42%
14:00 +28°C° 0 mm 2 mps 736 mmHg 41%
15:00 +26°C° 0 mm 2 mps 735 mmHg 48%
16:00 +25°C° 0 mm 2 mps 734 mmHg 55%
17:00 +24°C° 0 mm 2 mps 734 mmHg 61%
18:00 +21°C° 0.1 mm 2 mps 733 mmHg 71%
19:00 +20°C° 0.1 mm 2 mps 733 mmHg 80%
20:00 +18°C° 0.1 mm 2 mps 732 mmHg 89%
21:00 +18°C° 0.6 mm 3 mps 731 mmHg 92%
22:00 +17°C° 0.6 mm 3 mps 731 mmHg 95%
23:00 +17°C° 0.6 mm 4 mps 730 mmHg 98%
Show more